DW4754 Weather Reports


time (UTC)temp
F
wind
direction
speed
knots
gust
knots
rain 1hr
in
rain 24hr
in
rain mn
in
humidity
%
barometer
mb
20220927013403 77 158 0.0 0.0 0.00 0.00 0.00 33 1017.5
20220927010403 80 158 0.0 0.0 0.00 0.00 0.00 30 1017.3
20220927003337 82 158 0.0 0.0 0.00 0.00 0.00 27 1017.0
20220927000334 84 157 0.0 0.0 0.00 0.00 0.00 25 1016.9
20220926233341 85 157 0.0 0.9 0.00 0.00 0.00 24 1016.8
20220926230341 86 121 0.0 3.5 0.00 0.00 0.00 23 1016.8
20220926223334 86 113 0.0 1.7 0.00 0.00 0.00 22 1016.8
20220926220334 87 211 0.0 0.9 0.00 0.00 0.00 23 1017.0
20220926213342 88 65 0.0 0.9 0.00 0.00 0.00 24 1017.2
20220926210403 87 232 0.0 3.5 0.00 0.00 0.00 23 1017.2
20220926200341 87 261 0.0 1.7 0.00 0.00 0.00 24 1018.1
20220926193335 86 274 0.0 6.1 0.00 0.00 0.00 24 1018.6
20220926190331 86 175 0.0 1.7 0.00 0.00 0.00 24 1019.2
20220926183422 85 121 0.0 0.9 0.00 0.00 0.00 25 1019.7
20220926180337 85 230 1.7 4.3 0.00 0.00 0.00 24 1020.2
20220926173350 84 207 0.0 3.5 0.00 0.00 0.00 25 1020.5
20220926170343 83 240 0.0 2.6 0.00 0.00 0.00 27 1020.8
20220926163358 82 203 0.0 4.3 0.00 0.00 0.00 30 1021.2
20220926160339 81 195 0.0 2.6 0.00 0.00 0.00 30 1021.2
20220926150403 78 154 0.0 1.7 0.00 0.00 0.00 39 1021.0
20220926143326 75 182 0.0 1.7 0.00 0.00 0.00 40 1020.6
20220926140346 71 182 0.0 0.0 0.00 0.00 0.00 45 1020.4
20220926133340 70 182 0.0 0.0 0.00 0.00 0.00 47 1020.0
20220926130339 69 182 0.0 0.0 0.00 0.00 0.00 46 1019.7